User: anonymous   Login
Location: Unspecified
(0.0000°N, 0.0000°E)
Time: 07:26:07
(UTC+00:00)
Language:

ARIANE 5 DEB (SYLDA) - Orbit

View from above orbital plane
View from above orbital plane
View from above satellite
View from above satellite

Ground track
Ground track

The orbit data is extracted from the following two-line orbital elements,

1 26722U 01011D   17086.51010934 -.00000196 +00000-0 +48774-4 0  9998
2 26722 002.0500 047.6221 7075329 326.7406 285.3537 02.22886754130754
Epoch (UTC): 27 March 2017 12:14:33
Eccentricity: 0.7075329
inclination: 2.0500°
perigee height: 862 km
apogee height: 35893 km
right ascension of ascending node: 47.6221°
argument of perigee: 326.7406°
revolutions per day: 2.22886754
mean anomaly at epoch: 285.3537°
orbit number at epoch: 13075

The dashed part of the orbit path shows where the satellite is in the earth's shadow,  

DLR